Location: Prescott
(34.5400°N, 112.4680°W)
Time: 15:05:16
(UTC-07:00)

Amateur Radio Satellites - All Passes

Search period start: 25 October 2014 14:35
Search period end: 26 October 2014 14:35
Location: Prescott, 34.5400°N, 112.4680°W

Satellite Date Start Highest point End Downlink Frequencies (MHz)
Time Altitude Azimuth
TMSAT-1 25 Oct 14:38:59 14:44:15 76° 75° (ENE) 14:49:34 436.925 FM
Sapphire 25 Oct 14:40:48 14:43:20 13° 257° (WSW) 14:45:51 437.095 MHz 1200 baud AX-25 AFSK
AO-27 25 Oct 14:50:41 14:55:09 29° 263° (W) 14:59:41 436.795 MHz FM
AO-Echo 25 Oct 15:07:27 15:10:09 15° 268° (W) 15:12:54 ?
AO-7 25 Oct 15:11:09 15:18:53 46° 65° (ENE) 15:26:37 29.400 - 29.500 MHz
Uosat F 25 Oct 15:13:11 15:16:55 22° 67° (ENE) 15:20:41 435.120 FM
JAS-1B 25 Oct 15:16:06 15:17:30 11° 267° (W) 15:18:54 435.800 - 435.900 CW/SSB
JAS-2 25 Oct 15:54:57 15:58:36 17° 60° (ENE) 16:02:29 435.800 - 435.900 CW/SSB, 435.910 FM
Saudisat 1A 25 Oct 15:55:44 15:59:58 42° 57° (ENE) 16:04:09 436.775 MHz
TMSAT-1 25 Oct 16:23:56 16:24:39 10° 269° (W) 16:25:22 436.925 FM
Uosat F 25 Oct 16:50:49 16:55:26 37° 261° (W) 17:00:04 435.120 FM
OPAL 25 Oct 17:00:40 17:04:42 25° 98° (E) 17:08:43 ?
AO-7 25 Oct 17:04:22 17:11:41 35° 261° (W) 17:19:04 29.400 - 29.500 MHz
AO-40 25 Oct 17:09:19 23:13:26 50° 183° (S) 07:35:53 Beacon 2401.320
Hamsat 25 Oct 17:26:37 17:30:47 66° 76° (ENE) 17:34:57 145.90 MHz
Saudisat 1A 25 Oct 17:36:31 17:39:08 16° 251° (WSW) 17:41:45 436.775 MHz
JAS-2 25 Oct 17:36:59 17:42:44 69° 259° (W) 17:49:19 435.800 - 435.900 CW/SSB, 435.910 FM
SO-67 25 Oct 18:03:45 18:05:52 16° 71° (ENE) 18:07:59 435.3500 MHz FM
OPAL 25 Oct 18:39:14 18:43:32 31° 292° (WNW) 18:47:49 ?
STRAND 1 25 Oct 18:46:06 18:50:48 35° 98° (E) 18:55:27 ?
HO-68 25 Oct 18:50:39 18:53:06 12° 55° (NE) 18:55:32 435.675 MHz FM
ISS 25 Oct 18:59:29 19:02:45 51° 40° (NE) 19:06:00 145.800 FM
SO-67 25 Oct 19:35:57 19:38:38 21° 264° (W) 19:41:21 435.3500 MHz FM
KITSAT 1 25 Oct 19:43:22 19:49:36 24° 46° (NE) 19:55:47 435.175 FM
SO-50 25 Oct 20:06:12 20:08:06 12° 45° (NE) 20:09:59 436.795 FM
RS-15 25 Oct 20:10:16 20:18:38 26° 103° (ESE) 20:26:51 29.354 - 29.394 USB, Beacon 29.352 USB
STRAND 1 25 Oct 20:25:44 20:29:44 23° 292° (WNW) 20:33:44 ?
HO-68 25 Oct 20:32:27 20:39:34 75° 72° (ENE) 20:46:45 435.675 MHz FM
ISS 25 Oct 20:37:46 20:39:04 12° 234° (SW) 20:40:22 145.800 FM
UKube-1 25 Oct 20:41:15 20:44:47 25° 70° (ENE) 20:48:21 145.840 MHz, 145.915 MHz
Oscar 11 25 Oct 21:20:58 21:25:15 65° 76° (ENE) 21:29:32 145.825 FM, Beacon 2401.500 USB
FUNcube-1 25 Oct 21:22:10 21:26:01 27° 71° (ENE) 21:29:50 145.950 - 145.970 MHz USB
KITSAT 1 25 Oct 21:37:42 21:45:46 76° 246° (WSW) 21:53:47 435.175 FM
SO-50 25 Oct 21:44:23 21:49:16 87° 243° (WSW) 21:54:10 436.795 FM
ZACube-1 25 Oct 22:13:04 22:17:40 77° 258° (WSW) 22:22:14 437.345 MHz
UKube-1 25 Oct 22:17:23 22:20:52 23° 264° (W) 22:24:23 145.840 MHz, 145.915 MHz
RS-15 25 Oct 22:18:51 22:29:52 73° 301° (WNW) 22:40:49 29.354 - 29.394 USB, Beacon 29.352 USB
HO-68 25 Oct 22:23:37 22:27:50 16° 267° (W) 22:32:05 435.675 MHz FM
MaSat-1 25 Oct 22:44:31 22:48:36 50° 110° (ESE) 22:52:21 437.345 MHz
FUNcube-1 25 Oct 22:58:37 23:02:18 24° 264° (W) 23:05:57 145.950 - 145.970 MHz USB
UOSAT-12 25 Oct 23:02:06 23:06:42 51° 58° (ENE) 23:11:12 437.025 FM, 437.400 FM
KITSAT 1 25 Oct 23:38:02 23:39:49 11° 261° (W) 23:41:37 435.175 FM
MaSat-1 26 Oct 00:22:54 00:24:19 12° 302° (WNW) 00:25:42 437.345 MHz
RS-15 26 Oct 00:36:58 00:44:31 20° 327° (NNW) 00:52:08 29.354 - 29.394 USB, Beacon 29.352 USB
UOSAT-12 26 Oct 00:43:55 00:46:21 14° 252° (WSW) 00:48:45 437.025 FM, 437.400 FM
JAS-1B 26 Oct 01:06:38 01:12:31 27° 98° (E) 01:19:12 435.800 - 435.900 CW/SSB
Oscar 19 26 Oct 01:07:11 01:11:00 21° 95° (E) 01:14:48 437.125 CW, 437.150 USB
AO-27 26 Oct 01:29:28 01:31:50 13° 92° (E) 01:34:11 436.795 MHz FM
AO-Echo 26 Oct 01:37:42 01:41:52 23° 95° (E) 01:46:00 ?
Oscar 16 26 Oct 01:52:10 01:57:16 64° 102° (ESE) 02:02:20 437.025 USB, Beacon 2401.1428
Sapphire 26 Oct 01:53:19 01:55:49 13° 103° (ESE) 01:58:19 437.095 MHz 1200 baud AX-25 AFSK
PCSat 26 Oct 02:13:40 02:17:57 25° 107° (ESE) 02:22:15 145.825 MHz
Uribyol 2 26 Oct 02:14:19 02:19:14 41° 99° (E) 02:24:05 436.500 FM
ITAMSAT 1 26 Oct 02:20:38 02:25:38 45° 100° (E) 02:30:35 435.822 SSB
Oscar 19 26 Oct 02:45:43 02:50:24 37° 289° (WNW) 02:55:05 437.125 CW, 437.150 USB
Gurwin Techsat 1B 26 Oct 02:48:17 02:53:21 44° 99° (E) 02:58:22 435.225 FM
JAS-1B 26 Oct 02:56:26 03:03:06 53° 288° (WNW) 03:11:01 435.800 - 435.900 CW/SSB
TMSAT-1 26 Oct 02:58:41 03:03:40 40° 99° (E) 03:08:36 436.925 FM
RS-15 26 Oct 03:01:09 03:03:33 11° 5° (N) 03:05:57 29.354 - 29.394 USB, Beacon 29.352 USB
AO-27 26 Oct 03:06:32 03:11:41 61° 286° (WNW) 03:16:48 436.795 MHz FM
AO-Echo 26 Oct 03:15:47 03:20:39 37° 289° (WNW) 03:25:29 ?
AO-7 26 Oct 03:18:30 03:23:26 17° 93° (E) 03:28:20 29.400 - 29.500 MHz
Sapphire 26 Oct 03:33:14 03:38:35 65° 298° (WNW) 03:44:00 437.095 MHz 1200 baud AX-25 AFSK
Oscar 16 26 Oct 03:33:41 03:36:01 13° 296° (WNW) 03:38:21 437.025 USB, Beacon 2401.1428
Uribyol 2 26 Oct 03:54:37 03:58:21 20° 294° (WNW) 04:02:05 436.500 FM
PCSat 26 Oct 03:56:06 04:01:06 38° 302° (WNW) 04:06:09 145.825 MHz
ITAMSAT 1 26 Oct 04:01:08 04:04:44 19° 294° (WNW) 04:08:18 435.822 SSB
OPAL 26 Oct 04:12:01 04:16:33 32° 68° (ENE) 04:21:02 ?
Gurwin Techsat 1B 26 Oct 04:29:10 04:32:57 20° 294° (WNW) 04:36:43 435.225 FM
TMSAT-1 26 Oct 04:39:19 04:43:16 22° 293° (WNW) 04:47:13 436.925 FM
JAS-2 26 Oct 04:50:14 04:56:27 25° 93° (E) 05:02:32 435.800 - 435.900 CW/SSB, 435.910 FM
Uosat F 26 Oct 05:01:34 05:06:39 90° 103° (ESE) 05:11:41 435.120 FM
AO-7 26 Oct 05:08:35 05:16:56 84° 288° (WNW) 05:25:17 29.400 - 29.500 MHz
RS-15 26 Oct 05:12:48 05:21:49 27° 40° (NE) 05:31:04 29.354 - 29.394 USB, Beacon 29.352 USB
Hamsat 26 Oct 05:17:04 05:19:29 15° 94° (E) 05:21:54 145.90 MHz
OPAL 26 Oct 05:51:08 05:55:22 26° 262° (W) 05:59:35 ?
PANSAT 26 Oct 05:52:26 05:55:05 18° 163° (SSE) 05:57:43 not established
STRAND 1 26 Oct 05:58:39 06:03:17 36° 70° (ENE) 06:07:56 ?
Saudisat 1A 26 Oct 05:59:19 06:02:54 25° 111° (ESE) 06:06:30 436.775 MHz
JAS-2 26 Oct 06:34:03 06:41:44 61° 288° (WNW) 06:49:17 435.800 - 435.900 CW/SSB, 435.910 FM
Hamsat 26 Oct 06:51:40 06:55:31 35° 287° (WNW) 06:59:22 145.90 MHz
SO-67 26 Oct 07:02:01 07:05:02 28° 97° (E) 07:08:02 435.3500 MHz FM
AO-7 26 Oct 07:03:51 07:08:29 16° 306° (NW) 07:13:08 29.400 - 29.500 MHz
RS-15 26 Oct 07:24:21 07:35:39 87° 243° (WSW) 07:47:27 29.354 - 29.394 USB, Beacon 29.352 USB
PANSAT 26 Oct 07:31:21 07:34:46 31° 175° (S) 07:38:11 not established
STRAND 1 26 Oct 07:38:33 07:42:29 22° 265° (W) 07:46:28 ?
Saudisat 1A 26 Oct 07:38:36 07:42:20 27° 307° (NW) 07:46:07 436.775 MHz
HO-68 26 Oct 08:06:18 08:10:27 16° 92° (E) 08:14:34 435.675 MHz FM
Oscar 10/S400 26 Oct 08:09:18 23:13:58 48° 219° (SW) 09:09:26 145.825 - 145.975 CW/USB, Beacon 145.810 USB
JAS-2 26 Oct 08:23:57 08:25:12 10° 305° (NW) 08:26:27 435.800 - 435.900 CW/SSB, 435.910 FM
MaSat-1 26 Oct 08:34:03 08:36:12 25° 62° (ENE) 08:38:14 437.345 MHz
SO-67 26 Oct 08:36:15 08:37:42 12° 291° (WNW) 08:39:09 435.3500 MHz FM
PANSAT 26 Oct 09:11:13 09:14:33 28° 188° (S) 09:17:52 not established
Oscar 11 26 Oct 09:13:28 09:16:00 15° 94° (E) 09:18:32 145.825 FM, Beacon 2401.500 USB
RS-15 26 Oct 09:39:45 09:46:30 18° 260° (W) 09:53:26 29.354 - 29.394 USB, Beacon 29.352 USB
HO-68 26 Oct 09:51:32 09:58:43 77° 287° (WNW) 10:05:53 435.675 MHz FM
ZACube-1 26 Oct 10:06:39 10:10:08 25° 96° (E) 10:13:35 437.345 MHz
UKube-1 26 Oct 10:07:58 10:12:21 76° 102° (ESE) 10:16:41 145.840 MHz, 145.915 MHz
KITSAT 1 26 Oct 10:08:58 10:14:48 22° 103° (ESE) 10:20:39 435.175 FM
Oscar 11 26 Oct 10:48:20 10:52:16 36° 287° (WNW) 10:56:13 145.825 FM, Beacon 2401.500 USB
FUNcube-1 26 Oct 10:50:23 10:54:37 90° 105° (ESE) 10:58:46 145.950 - 145.970 MHz USB
PANSAT 26 Oct 10:52:08 10:54:11 14° 200° (SSW) 10:56:14 not established
PCSat 26 Oct 11:06:41 11:08:13 11° 46° (NE) 11:09:45 145.825 MHz
ISS 26 Oct 11:38:50 11:42:08 65° 319° (NW) 11:45:27 145.800 FM
HO-68 26 Oct 11:42:33 11:45:14 12° 304° (NW) 11:47:54 435.675 MHz FM
ZACube-1 26 Oct 11:43:12 11:46:22 21° 291° (WNW) 11:49:30 437.345 MHz
JAS-1B 26 Oct 11:53:47 11:55:22 11° 61° (ENE) 11:56:56 435.800 - 435.900 CW/SSB
SO-50 26 Oct 11:55:53 12:00:19 71° 117° (ESE) 12:04:53 436.795 FM
KITSAT 1 26 Oct 12:01:26 12:09:27 67° 300° (WNW) 12:17:30 435.175 FM
Oscar 19 26 Oct 12:20:54 12:24:49 22° 68° (ENE) 12:28:43 437.125 CW, 437.150 USB
Sapphire 26 Oct 12:24:49 12:30:03 47° 60° (ENE) 12:35:14 437.095 MHz 1200 baud AX-25 AFSK
AO-27 26 Oct 12:44:20 12:47:16 15° 64° (ENE) 12:50:12 436.795 MHz FM
PCSat 26 Oct 12:47:01 12:52:28 81° 64° (ENE) 12:57:52 145.825 MHz
AO-Echo 26 Oct 12:47:50 12:51:18 20° 66° (ENE) 12:54:52 ?
Oscar 16 26 Oct 13:05:34 13:10:40 65° 74° (ENE) 13:15:46 437.025 USB, Beacon 2401.1428
UOSAT-12 26 Oct 13:10:02 13:14:11 35° 113° (ESE) 13:18:26 437.025 FM, 437.400 FM
ISS 26 Oct 13:18:50 13:19:22 10° 336° (NNW) 13:19:54 145.800 FM
Uribyol 2 26 Oct 13:28:41 13:33:36 44° 72° (ENE) 13:38:33 436.500 FM
ITAMSAT 1 26 Oct 13:35:08 13:40:06 48° 72° (ENE) 13:45:07 435.822 SSB
JAS-1B 26 Oct 13:39:18 13:45:23 78° 257° (WSW) 13:51:04 435.800 - 435.900 CW/SSB
SO-50 26 Oct 13:39:23 13:41:23 13° 315° (NW) 13:43:24 436.795 FM
Oscar 19 26 Oct 13:59:09 14:03:53 37° 262° (W) 14:08:38 437.125 CW, 437.150 USB
KITSAT 1 26 Oct 14:02:08 14:06:27 15° 321° (NW) 14:10:46 435.175 FM
Gurwin Techsat 1B 26 Oct 14:05:52 14:10:57 49° 73° (ENE) 14:16:04 435.225 FM
Sapphire 26 Oct 14:09:15 14:13:03 20° 255° (WSW) 14:16:50 437.095 MHz 1200 baud AX-25 AFSK
AO-7 26 Oct 14:14:30 14:19:50 19° 56° (NE) 14:25:10 29.400 - 29.500 MHz
TMSAT-1 26 Oct 14:15:57 14:20:57 44° 72° (ENE) 14:25:59 436.925 FM
AO-27 26 Oct 14:21:08 14:26:14 57° 259° (W) 14:31:24 436.795 MHz FM
AO-Echo 26 Oct 14:25:11 14:29:43 39° 262° (W) 14:34:26 ?
